Flag for Norway Weather past 2 weeks in Tananger, Norway

45 °F

Scattered showers. Scattered clouds.

Feels Like: 39 °F
Forecast: 43 / 46 °F
Wind: 12 mph from Southwest

Location: Stavanger / Sola

Current Time: Nov 28, 2015 at 3:56:21 PM

Latest Report: Nov 28, 2015 at 2:50 PM

Visibility: N/A

Pressure: 29.33 "Hg

Humidity: 61%

Dew point: 32 °F

Location of TanangerLocation

Historic Weather in Tananger — Graph


Tananger temperature yesterday

Maximum temperature yesterday: 52 °F (at 11:50 AM)
Minimum temperature yesterday: 41 °F (at 11:50 PM)
Average temperature yesterday: 49 °F

Past Weeks' High & Low Weather Summary

High52 °F (Nov 16, 10:50 AM)100% (Nov 15, 6:20 PM)30.04 "Hg (Nov 15, 6:20 PM)
Low23 °F (Nov 22, 6:50 AM)52% (Nov 22, 2:20 PM)29.00 "Hg (Nov 19, 1:50 AM)
Average42 °F83%29.52 "Hg
* Reported Nov 13 2:20 PM — Nov 28 2:20 PM, Tananger, Weather by CustomWeather, © 2015

Note: Actual official high and low records may vary slightly from our data, if they occured in-between our weather recording intervals... More about our weather records


Tananger weather history for previous 24 hours

Time TempWeatherWind HumidityBarometerVisibility
2:20 PM
Sat, Nov 28
43 °FScattered showers. Scattered clouds.7 mph76%29.33 "HgN/A
1:50 PM45 °FScattered showers. Scattered clouds.12 mph66%29.36 "HgN/A
1:20 PM45 °FScattered showers. Scattered clouds.15 mph66%29.36 "HgN/A
12:50 PM45 °FScattered showers. Scattered clouds.16 mph66%29.36 "HgN/A
12:20 PM39 °FSprinkles. Broken clouds.12 mph87%29.36 "HgN/A
11:50 AM43 °FScattered showers. Broken clouds.14 mph76%29.36 "HgN/A
11:20 AM43 °FScattered showers. Scattered clouds.15 mph71%29.36 "HgN/A
10:50 AM39 °FScattered showers. Broken clouds.1 mph81%29.36 "HgN/A
10:20 AM43 °FSprinkles. Partly sunny.17 mph71%29.36 "HgN/A
9:50 AM43 °FScattered clouds.15 mph66%29.36 "HgN/A
9:20 AM43 °FScattered clouds.14 mph66%29.36 "HgN/A
8:50 AM43 °FScattered showers. Passing clouds.8 mph71%29.36 "HgN/A
8:20 AM43 °FScattered showers. Passing clouds.17 mph66%29.33 "HgN/A
7:50 AM43 °FPassing clouds.14 mph66%29.33 "HgN/A
7:20 AM39 °FPartly cloudy.7 mph70%29.33 "HgN/A
6:50 AM39 °FSprinkles. Passing clouds.23 mph81%29.33 "HgN/A
6:20 AM43 °FPassing clouds.16 mph61%29.30 "HgN/A
4:50 AM41 °FScattered showers. Partly cloudy.13 mph81%29.30 "HgN/A
3:50 AM43 °FPassing clouds.5 mph81%29.30 "HgN/A
2:50 AM41 °FPartly cloudy.7 mph87%29.30 "HgN/A
1:50 AM39 °FLight rain. Passing clouds.2 mph93%29.30 "HgN/A
12:50 AM41 °FLight rain. Passing clouds.5 mph87%29.30 "HgN/A
11:50 PM
Fri, Nov 27
41 °FLight rain. Passing clouds.8 mph93%29.30 "HgN/A
10:50 PM43 °FLight rain. Partly cloudy.16 mph87%29.30 "Hg6 mi
10:20 PM43 °FLight rain. Partly cloudy.20 mph93%29.30 "Hg6 mi
9:50 PM45 °FPartly cloudy.22 mph87%29.27 "Hg4 mi
9:20 PM45 °FDrizzle. Fog.21 mph93%29.27 "Hg2 mi
8:50 PM46 °FDrizzle. Fog.16 mph93%29.27 "Hg2 mi
8:20 PM46 °FDrizzle. Fog.14 mph100%29.27 "Hg2 mi
7:50 PM50 °FDrizzle. Fog.17 mph94%29.24 "Hg2 mi
7:20 PM50 °FDrizzle. Fog.18 mph94%29.27 "Hg2 mi
6:50 PM50 °FDrizzle. Fog.18 mph94%29.27 "Hg2 mi
6:20 PM50 °FDrizzle. Fog.16 mph94%29.30 "Hg2 mi
5:50 PM50 °FDrizzle. Fog.17 mph94%29.30 "Hg2 mi
5:20 PM50 °FFog.16 mph94%29.33 "Hg3 mi
4:50 PM50 °FDrizzle. Fog.15 mph94%29.33 "Hg3 mi
4:20 PM50 °FDrizzle. Fog.17 mph94%29.36 "Hg2 mi
3:50 PM50 °FMostly cloudy.17 mph94%29.36 "Hg6 mi
3:20 PM50 °FDrizzle. Mostly cloudy.17 mph94%29.39 "Hg2 mi
Weather by CustomWeather, © 2015

See weather overviewHow to use our weather pages